Flag for India Weather past 2 weeks in Bhinga, Uttar Pradesh, India

Now
77 °F

Scattered clouds.


Feels Like: 79 °F
Forecast: 74 / 93 °F
Wind: 9 mph from Southeast

Location: Lucknow / Amausi

Current Time: Apr 25, 2015 at 8:08:28 AM

Latest Report: Apr 25, 2015 at 7:30 AM


Visibility: 2 mi

Pressure: 29.77 "Hg

Humidity: 61%

Dew point: 63 °F

Location of BhingaLocation

Historic Weather in Bhinga — Graph

°F

Bhinga temperature yesterday

Maximum temperature yesterday: 104 °F (at 2:30 PM)
Minimum temperature yesterday: 77 °F (at 6:00 AM)
Average temperature yesterday: 91 °F

Past Weeks' High & Low Weather Summary

 TemperatureHumidityPressure
High108 °F (Apr 21, 2:30 PM)94% (Apr 13, 2:00 AM)30.01 "Hg (Apr 13, 2:00 AM)
Low66 °F (Apr 11, 5:30 AM)13% (Apr 22, 2:00 PM)29.53 "Hg (Apr 18, 3:00 PM)
Average86 °F52%29.77 "Hg
* Reported Apr 10 11:00 AM — Apr 25 6:30 AM, Bhinga, Weather by CustomWeather, © 2015

Note: Actual official high and low records may vary slightly from our data, if they occured in-between our weather recording intervals... More about our weather records

Advertising

Bhinga weather history for previous 24 hours

 ConditionsComfort  
Time TempWeatherWind HumidityBarometerVisibility
6:30 AM
Sat, Apr 25
72 °FScattered clouds.3 mph65%29.74 "Hg2 mi
5:00 AM72 °FPassing clouds.5 mph65%29.71 "Hg2 mi
4:00 AM73 °FPassing clouds.8 mph61%29.71 "Hg2 mi
3:00 AM75 °FPartly cloudy.12 mph57%29.71 "Hg2 mi
1:00 AM77 °FPartly cloudy.8 mph51%29.71 "Hg1 mi
11:00 PM
Fri, Apr 24
81 °FThunderstorms. Partly cloudy.12 mph45%29.74 "Hg1 mi
10:00 PM82 °FThunderstorms. Partly cloudy.12 mph42%29.74 "Hg1 mi
9:00 PM86 °FPartly cloudy.12 mph38%29.68 "Hg1 mi
7:30 PM93 °FHaze.No wind30%29.65 "Hg2 mi
7:00 PM93 °FHaze.No wind28%29.62 "Hg2 mi
6:30 PM95 °FHaze.No wind26%29.62 "Hg2 mi
6:00 PM97 °FScattered clouds.No wind22%29.62 "Hg2 mi
5:00 PM95 °FBroken clouds.9 mph23%29.62 "Hg1 mi
3:30 PM104 °FScattered clouds.2 mph26%29.62 "Hg2 mi
3:00 PM104 °FPassing clouds.2 mph26%29.65 "Hg2 mi
2:30 PM104 °FPassing clouds.2 mph28%29.65 "Hg2 mi
2:00 PM102 °FScattered clouds.5 mph31%29.68 "Hg2 mi
1:30 PM102 °FPassing clouds.6 mph33%29.71 "Hg2 mi
1:00 PM100 °FPassing clouds.5 mph37%29.71 "Hg2 mi
12:30 PM100 °FPassing clouds.3 mph37%29.71 "Hg2 mi
12:00 PM99 °FPassing clouds.3 mph39%29.71 "Hg2 mi
11:00 AM97 °FPassing clouds.3 mph39%29.74 "Hg2 mi
10:30 AM97 °FPassing clouds.5 mph37%29.74 "Hg2 mi
10:00 AM97 °FPassing clouds.5 mph37%29.74 "Hg2 mi
9:30 AM93 °FPassing clouds.3 mph39%29.74 "Hg2 mi
9:00 AM90 °FPassing clouds.3 mph43%29.71 "Hg2 mi
Weather by CustomWeather, © 2015

See weather overviewHow to use our weather pages